When you browse on this site, cookies collect data to enhance your experience and personalize the content and advertising you see.
Visit our Privacy Policy to learn more. By continuing to use the site, you agree to this use of cookies and data.
  • In Österreich
  • Länderverzeichnis
  • Für 7 Tage
  • Wassertemperatur
  • Wetterkarte
  • News
  • Widgets
  • user-avatar
    Anmelden

    Stündliche Wetter Makuni

    Heute, 28 Januar, Dienstag

    Zeit Temperatur Niederschläge Wind Luftdruck Luftfeuchtigkeit
    00:00 +1°C° 0.3 mm 1 m/S 743 mmHg 98%
    01:00 +1°C° 0.3 mm 1 m/S 742 mmHg 98%
    02:00 -1°C° 0 mm 2 m/S 742 mmHg 97%
    03:00 0°C° 0.1 mm 1 m/S 742 mmHg 97%
    04:00 0°C° 0.1 mm 1 m/S 742 mmHg 97%
    05:00 0°C° 0.1 mm 1 m/S 742 mmHg 97%
    06:00 0°C° 0.1 mm 1 m/S 741 mmHg 97%
    07:00 0°C° 0.1 mm 1 m/S 741 mmHg 97%
    08:00 0°C° 0.1 mm 1 m/S 741 mmHg 97%
    09:00 0°C° 0 mm 1 m/S 741 mmHg 94%
    10:00 +1°C° 0 mm 1 m/S 741 mmHg 91%
    11:00 -1°C° 0 mm 2 m/S 741 mmHg 89%
    12:00 -1°C° 0 mm 2 m/S 741 mmHg 88%
    13:00 -1°C° 0 mm 2 m/S 741 mmHg 87%
    14:00 +1°C° 0 mm 2 m/S 741 mmHg 86%
    15:00 -1°C° 0 mm 2 m/S 741 mmHg 88%
    16:00 -1°C° 0 mm 2 m/S 740 mmHg 90%
    17:00 -1°C° 0 mm 2 m/S 740 mmHg 91%
    18:00 -1°C° 0 mm 2 m/S 740 mmHg 92%
    19:00 -1°C° 0 mm 2 m/S 740 mmHg 92%
    20:00 -1°C° 0 mm 2 m/S 740 mmHg 92%
    21:00 -1°C° 0 mm 2 m/S 740 mmHg 93%
    22:00 -1°C° 0 mm 2 m/S 739 mmHg 94%
    23:00 -1°C° 0 mm 2 m/S 739 mmHg 94%

    Morgen, 29 Januar, Mittwoch

    Zeit Temperatur Niederschläge Wind Luftdruck Luftfeuchtigkeit
    00:00 -1°C° 0 mm 2 m/S 739 mmHg 95%
    01:00 -1°C° 0 mm 2 m/S 739 mmHg 95%
    02:00 +1°C° 0 mm 2 m/S 739 mmHg 96%
    03:00 0°C° 0 mm 3 m/S 738 mmHg 96%
    04:00 0°C° 0 mm 3 m/S 738 mmHg 95%
    05:00 0°C° 0 mm 3 m/S 737 mmHg 95%
    06:00 0°C° 0 mm 3 m/S 737 mmHg 94%
    07:00 0°C° 0 mm 3 m/S 737 mmHg 93%
    08:00 -2°C° 0 mm 4 m/S 737 mmHg 92%
    09:00 -2°C° 0 mm 4 m/S 737 mmHg 92%
    10:00 -2°C° 0 mm 4 m/S 737 mmHg 93%
    11:00 -2°C° 0 mm 4 m/S 736 mmHg 93%
    12:00 -1°C° 0 mm 4 m/S 736 mmHg 91%
    13:00 -1°C° 0 mm 4 m/S 736 mmHg 90%
    14:00 0°C° 0 mm 4 m/S 736 mmHg 88%
    15:00 -1°C° 0 mm 4 m/S 736 mmHg 90%
    16:00 -1°C° 0 mm 4 m/S 735 mmHg 91%
    17:00 -1°C° 0 mm 4 m/S 735 mmHg 93%
    18:00 0°C° 0 mm 4 m/S 734 mmHg 94%
    19:00 0°C° 0 mm 4 m/S 734 mmHg 94%
    20:00 0°C° 0 mm 4 m/S 734 mmHg 95%
    21:00 0°C° 0 mm 4 m/S 734 mmHg 95%
    22:00 0°C° 0 mm 4 m/S 733 mmHg 95%
    23:00 0°C° 0 mm 4 m/S 733 mmHg 95%

    übermorgen, 30 Januar, Donnerstag

    Zeit Temperatur Niederschläge Wind Luftdruck Luftfeuchtigkeit
    00:00 0°C° 0.1 mm 4 m/S 733 mmHg 96%
    01:00 0°C° 0.1 mm 4 m/S 732 mmHg 96%
    02:00 0°C° 0.1 mm 4 m/S 732 mmHg 96%
    03:00 0°C° 0.1 mm 4 m/S 731 mmHg 95%
    04:00 0°C° 0.1 mm 4 m/S 731 mmHg 94%
    05:00 0°C° 0.1 mm 4 m/S 730 mmHg 94%
    06:00 0°C° 0.2 mm 4 m/S 730 mmHg 94%
    07:00 0°C° 0.2 mm 4 m/S 730 mmHg 95%
    08:00 0°C° 0.2 mm 4 m/S 730 mmHg 96%
    09:00 0°C° 0.2 mm 4 m/S 730 mmHg 96%
    10:00 0°C° 0.2 mm 4 m/S 730 mmHg 96%
    11:00 0°C° 0.2 mm 4 m/S 730 mmHg 96%
    12:00 0°C° 0.3 mm 4 m/S 730 mmHg 96%
    13:00 +1°C° 0.3 mm 3 m/S 730 mmHg 96%
    14:00 +1°C° 0.3 mm 3 m/S 730 mmHg 96%
    15:00 +1°C° 0.3 mm 3 m/S 730 mmHg 95%
    16:00 +1°C° 0.3 mm 2 m/S 731 mmHg 94%
    17:00 +1°C° 0.3 mm 2 m/S 731 mmHg 93%
    18:00 +1°C° 0.2 mm 2 m/S 731 mmHg 93%
    19:00 +1°C° 0.2 mm 1 m/S 732 mmHg 93%
    20:00 +1°C° 0.2 mm 1 m/S 732 mmHg 92%
    21:00 +1°C° 0.1 mm 1 m/S 732 mmHg 93%
    22:00 0°C° 0.1 mm 1 m/S 732 mmHg 93%
    23:00 -1°C° 0.1 mm 0 m/S 732 mmHg 94%

    31 Januar, Freitag

    Zeit Temperatur Niederschläge Wind Luftdruck Luftfeuchtigkeit
    00:00 -1°C° 0.2 mm 0 m/S 733 mmHg 95%
    01:00 -1°C° 0.2 mm 0 m/S 733 mmHg 96%
    02:00 -1°C° 0.2 mm 0 m/S 733 mmHg 97%
    03:00 -1°C° 0.2 mm 0 m/S 733 mmHg 97%
    04:00 -1°C° 0.2 mm 0 m/S 733 mmHg 97%
    05:00 0°C° 0.2 mm 1 m/S 733 mmHg 97%
    06:00 +1°C° 0.2 mm 1 m/S 733 mmHg 97%
    07:00 +1°C° 0.2 mm 1 m/S 733 mmHg 97%
    08:00 +1°C° 0.2 mm 1 m/S 733 mmHg 97%
    09:00 +1°C° 0.1 mm 1 m/S 733 mmHg 96%
    10:00 +1°C° 0.1 mm 1 m/S 733 mmHg 95%
    11:00 +1°C° 0.1 mm 1 m/S 733 mmHg 94%
    12:00 +2°C° 0.1 mm 1 m/S 732 mmHg 91%
    13:00 +2°C° 0.1 mm 1 m/S 732 mmHg 87%
    14:00 +1°C° 0.1 mm 2 m/S 732 mmHg 84%
    15:00 +1°C° 0 mm 2 m/S 732 mmHg 87%
    16:00 -1°C° 0 mm 2 m/S 732 mmHg 89%
    17:00 -2°C° 0 mm 2 m/S 732 mmHg 92%
    18:00 -2°C° 0.2 mm 2 m/S 732 mmHg 94%
    19:00 -2°C° 0.2 mm 2 m/S 732 mmHg 95%
    20:00 -2°C° 0.2 mm 2 m/S 732 mmHg 96%
    21:00 -1°C° 0.1 mm 2 m/S 732 mmHg 97%
    22:00 +1°C° 0.1 mm 1 m/S 733 mmHg 97%
    23:00 +1°C° 0.1 mm 1 m/S 733 mmHg 97%

    1 Februar, Samstag

    Zeit Temperatur Niederschläge Wind Luftdruck Luftfeuchtigkeit
    00:00 +1°C° 0 mm 1 m/S 733 mmHg 98%
    01:00 +2°C° 0 mm 1 m/S 733 mmHg 98%
    02:00 +2°C° 0 mm 1 m/S 734 mmHg 98%
    03:00 +2°C° 0.1 mm 1 m/S 734 mmHg 98%
    04:00 +2°C° 0.1 mm 2 m/S 734 mmHg 98%
    05:00 +2°C° 0.1 mm 2 m/S 734 mmHg 98%
    06:00 +2°C° 0 mm 2 m/S 734 mmHg 97%
    07:00 +2°C° 0 mm 2 m/S 734 mmHg 96%
    08:00 +1°C° 0 mm 3 m/S 734 mmHg 96%
    09:00 +1°C° 0.1 mm 3 m/S 734 mmHg 96%
    10:00 +1°C° 0.1 mm 3 m/S 734 mmHg 96%
    11:00 +1°C° 0.1 mm 3 m/S 734 mmHg 97%
    12:00 0°C° 0.2 mm 4 m/S 734 mmHg 97%
    13:00 +1°C° 0.2 mm 4 m/S 734 mmHg 97%
    14:00 +1°C° 0.2 mm 4 m/S 734 mmHg 97%
    15:00 +1°C° 0.1 mm 4 m/S 734 mmHg 96%
    16:00 +1°C° 0.1 mm 4 m/S 734 mmHg 94%
    17:00 +2°C° 0.1 mm 3 m/S 734 mmHg 93%
    18:00 +2°C° 0 mm 3 m/S 734 mmHg 94%
    19:00 +2°C° 0 mm 3 m/S 734 mmHg 95%
    20:00 +2°C° 0 mm 3 m/S 734 mmHg 96%
    21:00 +2°C° 0 mm 3 m/S 734 mmHg 96%
    22:00 +2°C° 0 mm 3 m/S 734 mmHg 96%
    23:00 +2°C° 0 mm 3 m/S 734 mmHg 95%

    2 Februar, Sonntag

    Zeit Temperatur Niederschläge Wind Luftdruck Luftfeuchtigkeit
    00:00 +2°C° 0.2 mm 3 m/S 734 mmHg 96%
    01:00 +2°C° 0.2 mm 3 m/S 734 mmHg 96%
    02:00 +2°C° 0.2 mm 3 m/S 733 mmHg 96%
    03:00 +2°C° 0 mm 3 m/S 733 mmHg 96%
    04:00 +2°C° 0 mm 3 m/S 733 mmHg 97%
    05:00 +2°C° 0 mm 3 m/S 732 mmHg 97%
    06:00 +2°C° 0.3 mm 3 m/S 732 mmHg 97%
    07:00 +2°C° 0.3 mm 3 m/S 732 mmHg 97%
    08:00 +2°C° 0.3 mm 3 m/S 732 mmHg 97%
    09:00 +3°C° 0.7 mm 3 m/S 732 mmHg 97%
    10:00 +3°C° 0.7 mm 3 m/S 732 mmHg 97%
    11:00 +3°C° 0.7 mm 3 m/S 732 mmHg 97%
    12:00 +4°C° 0.3 mm 3 m/S 732 mmHg 94%
    13:00 +4°C° 0.3 mm 3 m/S 732 mmHg 91%
    14:00 +4°C° 0.3 mm 3 m/S 733 mmHg 87%
    15:00 +4°C° 0 mm 3 m/S 733 mmHg 85%
    16:00 +3°C° 0 mm 3 m/S 733 mmHg 84%
    17:00 +3°C° 0 mm 3 m/S 734 mmHg 82%
    18:00 +2°C° 0 mm 3 m/S 734 mmHg 83%
    19:00 +1°C° 0 mm 3 m/S 734 mmHg 84%
    20:00 +1°C° 0 mm 3 m/S 734 mmHg 86%
    21:00 +1°C° 0 mm 3 m/S 734 mmHg 89%
    22:00 +1°C° 0 mm 3 m/S 734 mmHg 92%
    23:00 0°C° 0 mm 3 m/S 734 mmHg 95%
    Mehr zeigen